Location: Hackberry
(29.5783°N, 96.8797°W)
Time: 14:12:23
(UTC+00:00)

Transit 2A - Pass Details

Date: 11 November 2024
Orbit: 592 x 956 km, 66.7° (Epoch: 02 December)

Event Time Altitude Azimuth Distance (km) Brightness Sun altitude
Exits shadow 09:49:32 31° 115° (ESE) 1,582 7.9 -39.1°
Maximum altitude 09:50:01 32° 107° (ESE) 1,573 7.9 -39.0°
Drops below altitude 10° 09:55:29 10° 47° (NE) 2,687 9.2 -37.8°
Sets 09:58:19 0° 38° (NE) 3,629 9.9 -37.2°
